TIANMU-1 22

Last updated on Thu Jul 03 2025 00:02:22 GMT+0000 (Coordinated Universal Time)

1 58663U 23208D 25183.57163748 .00005197 00000+0 21511-3 0 9997 2 58663 97.4288 295.6460 0005621 127.2722 232.9028 15.24365149 83958
UTC large
Height (km)
Speed (km/s)
/
Latitude / Longitude
Inclination (degrees)
Orbital Period (minutes)
Azimuth
Elevation
Range (km)
Doppler Factor

Next 0 passes for location: London (51.5072 / 0.1276)

Sorry there are no passes over London.